TimeCDT,TemperatureF,Dew PointF,Humidity,Sea Level PressureIn,VisibilityMPH,Wind Direction,Wind SpeedMPH,Gust SpeedMPH,PrecipitationIn,Events,Conditions,WindDirDegrees,DateUTC
12:54 AM,55.4,51.8,88,29.69,10.0,WNW,9.2,-,N/A,,Partly Cloudy,300,2011-10-13 05:54:00
1:54 AM,55.0,51.1,86,29.69,10.0,NW,12.7,-,N/A,,Partly Cloudy,320,2011-10-13 06:54:00
2:54 AM,54.0,50.0,86,29.69,10.0,NW,12.7,-,N/A,,Clear,310,2011-10-13 07:54:00
3:54 AM,52.0,48.9,89,29.69,10.0,NW,6.9,-,N/A,,Clear,320,2011-10-13 08:54:00
4:54 AM,52.0,48.9,89,29.69,10.0,NW,9.2,-,N/A,,Clear,310,2011-10-13 09:54:00
5:54 AM,52.0,46.9,83,29.71,10.0,NW,9.2,-,N/A,,Clear,310,2011-10-13 10:54:00
6:54 AM,50.0,46.0,86,29.72,10.0,WNW,10.4,-,N/A,,Clear,300,2011-10-13 11:54:00
7:54 AM,51.1,46.0,83,29.73,10.0,WNW,8.1,-,N/A,,Clear,300,2011-10-13 12:54:00
8:54 AM,54.0,46.9,77,29.73,10.0,NW,12.7,-,N/A,,Clear,310,2011-10-13 13:54:00
9:54 AM,57.0,48.0,72,29.74,10.0,NW,17.3,-,N/A,,Partly Cloudy,310,2011-10-13 14:54:00
10:54 AM,61.0,48.9,64,29.75,10.0,NW,16.1,-,N/A,,Clear,320,2011-10-13 15:54:00
11:54 AM,64.9,48.9,56,29.73,10.0,NNW,18.4,26.5,N/A,,Partly Cloudy,330,2011-10-13 16:54:00
12:54 PM,68.0,46.0,45,29.73,10.0,NNW,17.3,31.1,N/A,,Partly Cloudy,330,2011-10-13 17:54:00
1:54 PM,69.8,44.6,40,29.71,10.0,NW,19.6,31.1,N/A,,Partly Cloudy,320,2011-10-13 18:54:00
2:54 PM,70.0,44.1,39,29.69,10.0,NW,15.0,24.2,N/A,,Partly Cloudy,320,2011-10-13 19:54:00
3:54 PM,70.0,42.1,36,29.69,10.0,WNW,25.3,32.2,N/A,,Partly Cloudy,300,2011-10-13 20:54:00
4:54 PM,69.1,39.9,35,29.68,10.0,NW,20.7,28.8,N/A,,Partly Cloudy,310,2011-10-13 21:54:00
5:54 PM,68.0,39.0,35,29.69,10.0,NW,15.0,-,N/A,,Partly Cloudy,320,2011-10-13 22:54:00
6:54 PM,63.0,37.0,38,29.70,10.0,NW,11.5,-,N/A,,Partly Cloudy,310,2011-10-13 23:54:00
7:54 PM,62.1,35.1,37,29.71,10.0,NW,13.8,-,N/A,,Scattered Clouds,320,2011-10-14 00:54:00
8:54 PM,57.2,35.6,44,29.73,10.0,WNW,8.1,-,N/A,,Partly Cloudy,300,2011-10-14 01:54:00
9:54 PM,57.0,37.0,47,29.75,10.0,NW,8.1,-,N/A,,Scattered Clouds,310,2011-10-14 02:54:00
10:54 PM,55.0,35.1,47,29.75,10.0,WNW,4.6,-,N/A,,Clear,290,2011-10-14 03:54:00
11:54 PM,53.1,36.0,52,29.75,10.0,NNW,6.9,-,N/A,,Clear,330,2011-10-14 04:54:00